Location: Ashtead
(51.3000°N, 0.3000°W)
Time: 23:15:05
(UTC+00:00)

GP-B - Pass Details

Date: 03 May 2024
Orbit: 624 x 629 km, 89.8° (Epoch: 29 May)

Event Time Altitude Azimuth Distance (km) Brightness Sun altitude
Rises 00:22:33 0° 12° (NNE) 2,928 8.0 -22.7°
Reaches altitude 10° 00:25:15 10° 28° (NNE) 2,014 6.6 -22.7°
Maximum altitude 00:28:37 21° 78° (ENE) 1,423 5.1 -22.6°
Enters shadow 00:30:19 17° 108° (ESE) 1,592 5.0 -22.6°
